Location: Kirtland Hills
(41.6239°N, 81.3071°W)
Time: 09:14:14
(UTC+00:00)

Cosmos 1553 Rocket - Pass Details

Date: 29 October 2020
Orbit: 940 x 1009 km, 82.9° (Epoch: 26 November)

Event Time Altitude Azimuth Distance (km) Brightness Sun altitude
Rises 22:53:36 0° 166° (SSE) 3,712 7.0 -6.3°
Reaches altitude 10° 22:56:14 10° 160° (SSE) 2,760 6.3 -6.8°
Maximum altitude 23:02:12 45° 90° (E) 1,331 4.3 -7.9°
Drops below altitude 10° 23:08:05 10° 20° (NNE) 2,736 6.1 -9.0°
Sets 23:10:41 0° 14° (NNE) 3,677 6.8 -9.5°
